星链-5918 (STARLINK-5918 )

导读 | 星芒AI

STARLINK-5918 是 SpaceX Starlink 项目中的一颗低轨通信卫星,属于第 12 批组网卫星(Batch 12),于 2022 年 9 月发射。该卫星运行在约 550 公里的轨道高度,旨在为全球提供高速互联网服务。作为 Starlink 卫星群的一部分,STARLINK-5918 采用先进推进系统和激光通信技术,支持快速组网与高效数据传输,助力实现 SpaceX 构建全球宽带网络的目标。

基本信息
目录编号:
55939
目录名称:
STARLINK-5918
国际标识:
2023-037AB
轨道中心:
EARTH
卫星名称:
星链-5918
卫星全名:
星链-5918 (STARLINK-5918 )
卫星状态:
在轨 (已飞行963 天)
发射日期:
2023-03-17 UTC
国别 :
美国 (US)
星等 :
--
轨道信息
数据来源 国际轨道数据 AOE轨道数据
星历时间 2025-11-04T03:09:31+0800
12小时前
查看轨道信息
2025-10-28T17:00:00+0800
6天前
查看轨道信息
半长轴 6950.149km 6950.17km
偏心率 0.0002451 0.0003106
轨道倾角 70.002° 70.001°
近地点辐角 277.053° 277.973°
升交点赤经 241.839° 258.032°
平近点角 83.034° 4.894°
近地点 570.31km 569.876km
远地点 573.718km 574.194km
周期 96.106分钟 96.107分钟
每日圈数 14.983443 14.983375
详细信息
固有亮度:
5
最大亮度:
2.5
卫星平台:
Starlink v1.5
覆盖范围:
全球
运营商:
太空探索技术公司
运营商所在国:
美国
制造商(研发单位):
太空探索技术公司
制造商所在国:
美国
使用方式:
暂无
卫星简介
星链(Starlink)计划是由太空探索技术公司(SpaceX)提出的一个巨型低轨卫星互联网星座项目,计划在2019年至2024年间在太空搭建由约1.2万颗卫星组成的“星链”网络,其中1584颗将部署在地球上空550千米处的近地轨道,并从2020年开始工作。该卫星仍在工作。
2D轨道图
3D轨道图
轨道高度分析图
轨道倾角分析图
轨道综合分析图
查看轨道综合分析图